CZ-2D R/B

Satellite information

Favourite Embed

Satellite Type and Status

ROCKET BODYIN ORBIT

Key statistics

Satellite CZ-2D R/B at a glance.

Uptime

1163

Days in orbit

Revolutions

≈ 14.6

Per day

Orbit

SSO

Sun Synchronous Orbit

Inclination

98.2

Latest

Satellite identification and parameters

Extended collection of information and parameters for CZ-2D R/B.

Object identification

Identified? True

Debris? False

Object name: CZ-2D R/B

International designator: 2022-129B

Object number (NORAD): 54030

Object ID (CCSDS): 54030

Country: PEOPLES REPUBLIC OF CHINA (PRC)

Current information (Y/N): Y

RCS size: LARGE

Orbital parameters

Period: 98.858 minutes

Inclination: 98.2092 deg

SMA: 7082.211 km

Apoapsis: 717.501 km

Periapsis: 690.651 km

RAAN: 348.3055 deg

Eccentricy: 0.00189555

Argument of periapsis: 118.5407 deg

Mean anomaly: 241.7702 deg

Mean motion: 14.5663073 rev/day

Mean motion (dot): 0.00000654 rev/day2

B* drag term: 0.00015656762 1/REarth

Two-line elements (TLE)

Creation date: Dec. 14, 2025, 3:07 a.m.

Reference frame: TEME

Reference center: EARTH

Epoch: Dec. 13, 2025, 12:06 p.m. UTC

TLE line 0: 0 CZ-2D R/B

TLE line 1: 1 54030U 22129B 25347.50442726 .00000654 00000-0 15657-3 0 9991

TLE line 2: 2 54030 98.2092 348.3055 0018955 118.5407 241.7702 14.56630730168975

Live tracking on map

Real-time ground track for satellite CZ-2D R/B.

In-orbit conjunctions

A list of the most updated potential collisions computed for object CZ-2D R/B.

Target Orbit TCA Probability of collision Miss distance Type
FENGYUN 1C DEB SSO 2025-01-17 19:22:40 0.0003563427 89.0 (m) DEBRIS

Associated space launch

ASO-S (Advanced Space-borne Solar Observatory) is a Chinese solar space observatory that aims to study the interaction between the Sun's magnetic field, solar flares and coronal mass ejections. It's the first space solar observatory of China. ASO-S is a 3-axis stabilized satellite with a mass of less than 1,000 kg with a pointing accuracy of 0.01° and an orientation stability of 1 to 2 arc seconds every 20 seconds. The payload has a mass below 335 kg and consumes about 300 watts. The platform's pointing accuracy is lower than 0.01°, the measurement accuracy is lower than 1 arc second and the orientation drift is below 0.0004°/s. ASO-S has three instruments: - The Full-Disc Vector Magnetograph (FMG) instrument is intended to map the magnetic field of the photosphere over the entire solar disk. It includes an imager, an optical polarization system and a CCD detector. - The Hard X-ray Imager (HXI) camera should image the whole solar disk in X-rays. The instrument is optimized to take images of solar flares. - A set of three LST (Lyman-alpha Solar Telescope) telescopes is used to observe the Lyman-alpha line (121.6 nm) of solar flares up to a distance of several solar radii from the Sun's disk. These three telescopes are SDI (to obtain an image of the solar disk), SCI (coronagraph for observation between 1.1 and 2.5 solar radii) and WST (white light emitted by the solar disk used for calibration purposes).

CZ-2D R/B was lifted into orbit during the mission ‘Long March 2D | Advanced Space-borne Solar Observatory (ASO-S)’, on board a Long March 2D space rocket.

The launch took place on Oct. 8, 2022, 11:43 p.m. from Launch Area 94 (SLS-2 / 603).

For more information about the launch, click the button.

Launch to space Long March 2D | Advanced Space-borne Solar Observatory (ASO-S)
Long March 2D | Advanced Space-borne Solar Observatory (ASO-S)

Agency: N/A

Status: Launch Successful

Launch date: Oct. 8, 2022, 11:43 p.m. UTC

Rocket: Long March 2D

Launch pad: Launch Area 94 (SLS-2 / 603)

Location: Jiuquan Satellite Launch Center, People's Republic of China

...

Latest news about this satellite

There are no fresh news available about this satellite. Check back as we update our databases every day.


Newsletter sign-up

Weekly statistics, charts and insights to help you stay on top of the space industry.